Showing default

GGSE 5, 2834

Orbit data source: Space-Track

GGSE 5, 2834 is an American payload satellite in LEO that was launched on Wed, 31 May 1967 UTC via a THOR SLV-2 AGENA D launch vehicle from the Air Force Western Test Range (AFWTR). Payload-class satellites include a variety of spacecraft equipped with specific instruments for various scientific and technological missions. These include communications satellites like Starlink; space stations such as the ISS; scientific satellites like the Hubble; Earth observation satellites from companies like Planet Labs, Umbra, and HawkEye 360; GPS; miniature CubeSats for education and research; and military/defense satellites.

Loading next visibility...
Identifier
2834, 1967-053D
Orbit
LEO
Country
Flag of USUS
Related business
Manufacturer
NRL
Mission
Spacecraft
Bus & Motor
NRL MULTI, Unknown motor
Mass
105 kg wet, 105 kg dry
Launch date (UTC)
1967-05-31 (59 years ago)
Launch vehicle
THOR SLV-2 AGENA D
Launch site
Air Force Western Test Range (AFWTR)
Object type
Payload
Rocket body
Debris
Shape & HBR
Unknown
Radar Cross Section
Medium (>0.1 m² and <1 m²)

Expand to show TLE details & history
Last TLE update: 21 hours ago

TLE from 21 hours ago
0 GGSE 5
1 02834U 67053D   26140.58690594 -.00000011  00000-0  30657-4 0  9995
2 02834  69.9719 192.1513 0010024 251.4483 108.5534 13.96187945  2298
Epoch: 2026-05-20T14:05Z
TLE epoch observation values (Epoch: 2026-05-20T14:05:08.673Z)
Latitude
Longitude
102.62084°
Altitude
911.667 km
Speed
7.395 km/s
True Right ascension
12h 48m 36s
True Declination
0° 00' 00"
Sunlit
Object was in full shadow at epoch
Visualization orbit readout
Latitude
Unknown
Longitude
Unknown
Altitude
Unknown
Speed
Unknown
Apparent Right ascension
Unknown
Apparent Declination
Unknown
Sunlit
N/A
Visualization observer readout
Local Sidereal Time
20:09:36
Azimuth
Unknown
Elevation
Unknown
Doppler factor
Unknown
Orbital elements
Apogee altitude
912.372 km
Perigee altitude
897.771 km
Semi-major axis
7,283.208 km
Eccentricity
0.001
Inclination
69.9719°
RAAN
192.1513°
Arg. of periapsis
251.4483°
True anomaly
108.66225°
Mean anomaly
108.5534°
Eccentric anomaly
108.60783°
Mean motion
3.49188 °/min
Orbital period
103.1 mins
BSTAR
0.000030657
Loading maneuver chart data...
Computing Atmospheric mass density...
Loading historical data...
Loading historical data...
Loading historical data...
Loading historical data...
Loading historical data...
Loading historical data...
Loading historical data...

Documentation

Showing up to 5 results
|